Location: ???????
(38.3360°N, 23.6977°E)
Time: 05:32:26
(UTC+00:00)

Cosmos 1812 - Pass Details

Date: 17 November 2025
Orbit: 340 x 350 km, 82.5° (Epoch: 09 December)

Event Time Altitude Azimuth Distance (km) Brightness Sun altitude
Rises 15:48:37 0° 169° (S) 2,237 6.0 -7.7°
Reaches altitude 10° 15:50:42 10° 159° (SSE) 1,387 4.9 -8.1°
Maximum altitude 15:53:27 33° 93° (E) 655 2.7 -8.6°
Drops below altitude 10° 15:56:12 10° 27° (NNE) 1,384 4.5 -9.1°
Enters shadow 15:57:38 - 19° (NNE) 1,967 5.3 -9.4°
